Weather History for KRIW - April, 2013

Change the Weather History Date:

Thursday, April 11, 2013

  Actual Average Record
Temperature  
Mean Temperature 36 °F 43 °F  
Max Temperature 49 °F 56 °F 79 °F (2012)
Min Temperature 22 °F 30 °F 4 °F (1997)
Degree Days  
Heating Degree Days 29 22  
Month to date heating degree days 282 257  
Since 1 July heating degree days 6724 7029  
Cooling Degree Days 0 0  
Month to date cooling degree days 0 0  
Year to date cooling degree days 0 0  
Moisture  
Dew Point 26 °F    
Average Humidity 68    
Maximum Humidity 89    
Minimum Humidity 46    
Precipitation  
Precipitation 0.02 in 0.04 in 0.06 in (2009)
Month to date precipitation 0.42 0.35  
Year to date precipitation 1.18 1.41  
Snow  
Snow 0.30 in - - ()
Month to date snowfall 5.0  
Since 1 July snowfall 24.9  
Snow Depth 3.00 in    
Sea Level Pressure  
Sea Level Pressure 29.89 in    
Wind  
Wind Speed 6 mph (SW)    
Max Wind Speed 16 mph    
Max Gust Speed 18 mph    
Visibility 8 miles    
Events Snow    
T = Trace of Precipitation, MM = Missing Value Source: NWS Daily Summary

Daily Weather History Graph

Daily Weather History Graph

Search for Another Location

Airport or City:

Trip Planner

Search our weather history database for the weather conditions in past years. The results will help you decide how hot, cold, wet, or windy it might be!

Date:

Astronomy

Apr. 11, 2013 Rise Set
Actual Time 6:38 AM MDT 7:52 PM MDT
Civil Twilight 6:08 AM MDT 8:21 PM MDT
Nautical Twilight 5:33 AM MDT 8:56 PM MDT
Astronomical Twilight 4:56 AM MDT 9:34 PM MDT
Moon 7:09 AM MDT (4/11) 9:32 PM MDT (4/11)
Length of Visible Light 14h 12m
Length of Day
13h 14m
New Moon, 2% of the Moon is Illuminated
Apr 11
New Moon
Apr 18
First Quarter
Apr 25
Full
May 2
Last Quarter
May 9
New

Hourly Weather History & Observations

Time (MDT) Temp. Windchill Dew Point Humidity Pressure Visibility Wind Dir Wind Speed Gust Speed Precip Events Conditions
12:53 AM 27.0 °F 19.5 °F 19.0 °F 72% 29.97 in 10.0 mi West 6.9 mph - N/A   Overcast
1:53 AM 27.0 °F 23.0 °F 19.0 °F 72% 29.94 in 10.0 mi WSW 3.5 mph - N/A   Overcast
2:53 AM 26.1 °F 21.9 °F 19.9 °F 78% 29.88 in 10.0 mi SSE 3.5 mph - N/A   Scattered Clouds
3:53 AM 24.1 °F - 19.0 °F 81% 29.87 in 10.0 mi Calm Calm - N/A   Partly Cloudy
4:53 AM 25.0 °F 19.3 °F 19.9 °F 81% 29.88 in 10.0 mi WNW 4.6 mph - N/A   Overcast
5:53 AM 27.0 °F 23.0 °F 19.0 °F 72% 29.88 in 10.0 mi South 3.5 mph - N/A   Mostly Cloudy
6:53 AM 26.1 °F 15.6 °F 19.9 °F 78% 29.91 in 10.0 mi WSW 11.5 mph - N/A   Overcast
7:53 AM 26.1 °F 18.4 °F 19.0 °F 75% 29.95 in 6.0 mi WSW 6.9 mph - 0.00 in Snow Light Snow
8:45 AM 28.4 °F - 23.0 °F 80% 29.87 in 1.8 mi Calm Calm - 0.00 in Snow Light Snow
8:50 AM 30.2 °F 26.7 °F 24.8 °F 80% 29.87 in 2.0 mi West 3.5 mph - 0.00 in Snow Light Snow
8:53 AM 30.0 °F 26.5 °F 24.1 °F 79% 29.95 in 2.0 mi WSW 3.5 mph - 0.00 in Snow Light Snow
9:02 AM 30.2 °F - 24.8 °F 80% 29.87 in 1.0 mi Calm Calm - 0.01 in Snow Light Snow
9:32 AM 28.4 °F 19.7 °F 24.8 °F 86% 29.87 in 2.5 mi SW 9.2 mph - 0.01 in Snow Light Snow
9:39 AM 28.4 °F 21.2 °F 24.8 °F 86% 29.87 in 6.0 mi SW 6.9 mph - 0.01 in   Overcast
9:53 AM 28.0 °F 18.6 °F 26.1 °F 92% 29.97 in 5.0 mi SW 10.4 mph - 0.01 in   Mostly Cloudy
10:51 AM 33.8 °F 25.3 °F 30.2 °F 87% 29.89 in 10.0 mi SW 11.5 mph - 0.01 in   Scattered Clouds
10:53 AM 33.8 °F 25.3 °F 30.2 °F 87% 29.89 in 10.0 mi SW 11.5 mph - N/A   Mostly Cloudy
11:08 AM 35.6 °F 27.1 °F 30.2 °F 81% 29.89 in 10.0 mi SW 12.7 mph - N/A   Scattered Clouds
11:53 AM 39.0 °F 32.8 °F 30.9 °F 73% 29.94 in 10.0 mi SW 9.2 mph - N/A   Mostly Cloudy
12:53 PM 42.1 °F 36.6 °F 32.0 °F 67% 29.90 in 10.0 mi SSW 9.2 mph - N/A   Clear
1:53 PM 44.1 °F 40.1 °F 30.9 °F 60% 29.89 in 10.0 mi South 6.9 mph - N/A   Clear
2:53 PM 46.0 °F 44.8 °F 28.9 °F 51% 29.88 in 10.0 mi Variable 3.5 mph - N/A   Clear
3:53 PM 46.9 °F - 28.9 °F 50% 29.87 in 10.0 mi SSE 4.6 mph - N/A   Clear
4:53 PM 48.0 °F - 28.9 °F 48% 29.85 in 10.0 mi SSE 6.9 mph - N/A   Partly Cloudy
5:53 PM 46.0 °F 41.4 °F 28.0 °F 50% 29.85 in 10.0 mi SSE 9.2 mph - N/A   Clear
6:53 PM 46.0 °F 43.1 °F 28.0 °F 50% 29.86 in 10.0 mi SSE 5.8 mph - N/A   Clear
7:53 PM 45.0 °F - 28.0 °F 52% 29.86 in 10.0 mi Calm Calm - N/A   Clear
8:53 PM 39.9 °F - 28.9 °F 65% 29.88 in 10.0 mi Calm Calm - N/A   Partly Cloudy
9:53 PM 39.9 °F 35.1 °F 30.0 °F 68% 29.91 in 10.0 mi North 6.9 mph - N/A   Scattered Clouds
10:53 PM 39.0 °F 32.8 °F 30.9 °F 73% 29.88 in 10.0 mi NNE 9.2 mph - N/A   Clear
11:53 PM 37.9 °F 33.5 °F 30.9 °F 76% 29.87 in 10.0 mi North 5.8 mph - N/A   Scattered Clouds